Regional Weather Roundup
Issued by NWS

Home | Current Version | Previous Version | Text Only | Print | Product List | Glossary Off
Versions: 1 2 3 4 5 6 7 8 9 10 11 12 13 14 15 16 17 18 19 20 21 22 23 24 25 26 27 28 29 30 31 32 33 34 35 36 37 38 39 40 41 42 43 44 45 46 47 48 49 50

400
ASUS45 KTFX 171510
RWRMT
MONTANA REGIONAL WEATHER ROUNDUP
NATIONAL WEATHER SERVICE GREAT FALLS MT
900 AM MDT THU AUG 17 2017

NOTE: "FAIR" INDICATES FEW OR NO CLOUDS BELOW 12000 FEET WITH NO
SIGNIFICANT WEATHER AND/OR OBSTRUCTIONS TO VISIBILITY.

MTZ001>007-043-171600-
WEST OF THE DIVIDE

CITY           SKY/WX    TMP DP  RH WIND       PRES   REMARKS
KALISPELL      MOSUNNY   59  47  64 CALM      30.05R
MISSOULA       MOSUNNY   59  42  53 CALM      30.11R
BUTTE          PTSUNNY   53  35  50 CALM      30.19R
MULLAN PASS    SUNNY     55  38  52 VRB3      30.20R
DEER LODGE       N/A     57  39  51 CALM      30.17R
EUREKA           N/A     63  41  45 MISG      30.04R
HAMILTON         N/A     63  39  42 S8        30.12S
LIBBY            N/A     63  41  45 CALM      30.04R
RONAN            N/A     66  45  46 CALM      30.10S
$$

MTZ008-052>055-171600-
SOUTHWEST MONTANA

CITY           SKY/WX    TMP DP  RH WIND       PRES   REMARKS
BOZEMAN        SUNNY     62  44  51 SE5       30.12R HAZE
DILLON         SUNNY     60  44  55 W3        30.15R
W YELLOWSTONE  CLOUDY    54  41  62 CALM      30.24R
ENNIS          SUNNY     61  41  48 CALM      30.21S
THREE FORKS      N/A     61  45  55 CALM      30.09R
$$

MTZ009-010-012-014-046-048-049-054-171600-
EAST SLOPES AND CENTRAL MONTANA

CITY           SKY/WX    TMP DP  RH WIND       PRES   REMARKS
CUT BANK       SUNNY     62  40  44 NW16G23   30.04R
GREAT FALLS    SUNNY     68  33  27 SW9       30.02S
MALMSTROM AFB  SUNNY     68  35  29 SW13      30.02R
HELENA         SUNNY     71  39  31 NW9       30.09R
AUGUSTA          N/A     70  36  28 W9        30.06R
BOWMANS CRNR     N/A     65  35  31 S8        30.05R
CHOTEAU          N/A     73  41  31 NW10      30.04S
FAIRFIELD        N/A     69  38  32 W6        30.03R
POWER            N/A     67  36  32 SW7       30.02R
RAYNESFORD       N/A     65  35  32 E5        30.05R
ULM              N/A     69  36  29 SW3       30.03R
$$

MTZ011-013-016-021-045-047-050-051-171600-
NORTH CENTRAL MONTANA

CITY           SKY/WX    TMP DP  RH WIND       PRES   REMARKS
HAVRE          MOSUNNY   68  36  30 SW13      29.94R
LEWISTOWN      MOSUNNY   58  36  43 CALM      30.04R
N BAR RANCH      N/A     70  32  24 NW13      30.05S
CHINOOK          N/A     66  37  34 W8        29.94R
DENTON           N/A     66  34  29 S5        29.97R
GEYSER           N/A     71  32  24 W17       30.03R
GRASS RANGE      N/A     70  29  21 W20       29.97R
JUDITH GAP       N/A     65  36  34 N9        30.05R
WINIFRED         N/A     70  31  24 W12       30.00R
$$

MTZ017>020-022>027-061-062-171600-
NORTHEAST MONTANA

CITY           SKY/WX    TMP DP  RH WIND       PRES   REMARKS
GLASGOW        CLOUDY    63  40  42 NW9       29.88R
JORDAN           N/A     70  35  27 W8        29.90R
SIDNEY         MOSUNNY   66  55  67 SE5       29.86R
WOLF POINT     PTSUNNY   65  51  60 SW6       29.86S
MALTA          MOSUNNY   63  41  45 CALM      29.90S
PLENTYWOOD       N/A     66  54  63 CALM      29.86S
POPLAR           N/A     64  52  63 CALM      29.87R
SCOBEY           N/A     60  48  64 CALM      29.87S
$$

MTZ028>42-056>058-171600-
SOUTHCENTRAL AND SOUTHEAST MONTANA

CITY           SKY/WX    TMP DP  RH WIND       PRES   REMARKS
BAKER          SUNNY     67  48  50 CALM      29.92R
BILLINGS       CLOUDY    65  38  36 SW13      30.01R
LIVINGSTON     PTSUNNY   60  41  49 NW8       30.11R
MILES CITY     MOSUNNY   69  36  29 SW3       29.91R
BIG TIMBER     SUNNY     64  37  36 W15G21    30.10R
EKALAKA          N/A     72  41  32 W5        29.93R
FORSYTH          N/A     63  37  39 SW6       29.92S
HARLOWTON      PTSUNNY   67  34  29 MISG      30.04S
LAUREL           N/A     64  41  43 SW6       30.00F
$$

REGIONAL REPORTS...DAKOTAS

CITY           SKY/WX    TMP DP  RH WIND       PRES   REMARKS
WILLISTON      SUNNY     70  54  56 SW6       29.84R
MINOT          SUNNY     76  55  48 S8        29.86R
DICKINSON      SUNNY     69  52  54 S14       29.87S
BEACH            N/A     72  45  37 W7        29.92R
CROSBY           N/A     70  55  60 E7G13     29.86F
TIOGA            N/A     70  57  64 S10       29.87R
WATFORD CITY     N/A     72  52  49 SW7       29.84S
BISMARCK       SUNNY     67  58  72 CALM      29.91S
GRAND FORKS    PTSUNNY   63  63 100 N7        29.83F
FARGO          CLOUDY    66  61  84 N17G26    29.83R
BUFFALO SD       N/A     68  53  58 S3        29.86S
RAPID CITY     CLOUDY    65  53  65 SE6       29.95S
$$

REGIONAL REPORTS...WYOMING/IDAHO/WASHINGTON

CITY           SKY/WX    TMP DP  RH WIND       PRES   REMARKS
GILLETTE       MOSUNNY   73  39  29 N3        30.01R
SHERIDAN       PTSUNNY   69  48  47 CALM      30.00S
BUFFALO WY     MOSUNNY   70  41  34 W5        30.07R
CODY           MOSUNNY   64  46  52 SW3       30.11R
YELLOWSTONE LA   N/A     55  42  61 CALM      30.30S
IDAHO FALLS    SUNNY     63  41  44 SW13      30.15R
SALMON         SUNNY     56  45  66 CALM      30.17R
BOISE          SUNNY     66  42  41 CALM      30.10R
SPOKANE        MOSUNNY   61  49  64 S8        30.07R
$$

REGIONAL REPORTS...ALBERTA

CITY           SKY/WX    TMP DP  RH WIND       PRES   REMARKS
EDMONTON       SUNNY     63  48  59 W9        29.95R
CALGARY        SUNNY     59  46  63 SW2       30.05R SMOKE
LETHBRIDGE     PTSUNNY   61  46  59 NW9       30.03R
MEDICINE HAT   MOSUNNY   64  46  52 N8        29.94R
$$

REGIONAL REPORTS...SASKATCHEWAN

CITY           SKY/WX    TMP DP  RH WIND       PRES   REMARKS
SWIFT CURRENT  PTSUNNY   63  45  51 N10       29.95R
REGINA         PTSUNNY   68  48  49 SE12      29.87S
SASKATOON      SUNNY     64  54  68 W7        29.89S
$$




USA.gov is the U.S. government's official web portal to all federal, state and local government web resources and services.